This is the latest recevied weather packets stored in our database for station/object KC8UZG. If no packets are shown the sender has not sent any weather packets the latest 10 day(s).
| Time | Temp. | Humidity | Pressure | Rain* | Wind** | Luminosity | Snow |
|---|---|---|---|---|---|---|---|
| 1777580116 | 13.89° C | 51% | 1014.6 hPa | 0 mm | - | 128 W/m² | - |
| 1777579522 | 13.89° C | 51% | 1015 hPa | 0 mm | - | 191 W/m² | - |
| 1777578928 | 14.44° C | 52% | 1015 hPa | 0 mm | - | 172 W/m² | - |
| 1777578334 | 13.89° C | 53% | 1014.8 hPa | 0 mm | - | 362 W/m² | - |
| 1777577740 | 15° C | 51% | 1015 hPa | 0 mm | - | 386 W/m² | - |
| 1777577119 | 15° C | 50% | 1015 hPa | 0 mm | - | 541 W/m² | - |
| 1777576525 | 14.44° C | 51% | 1015 hPa | 0 mm | - | 517 W/m² | - |
| 1777575931 | 14.44° C | 53% | 1015.3 hPa | 0 mm | - | 421 W/m² | - |
| 1777575337 | 13.33° C | 54% | 1015 hPa | 0 mm | - | 262 W/m² | - |
| 1777574716 | 13.89° C | 53% | 1015 hPa | 0 mm | - | 415 W/m² | - |
| 1777574122 | 13.89° C | 54% | 1015 hPa | 0 mm | - | 293 W/m² | - |
| 1777573528 | 13.89° C | 55% | 1015.2 hPa | 0 mm | - | 547 W/m² | - |
| 1777572935 | 13.33° C | 53% | 1015.1 hPa | 0 mm | - | 447 W/m² | - |
| 1777572340 | 13.89° C | 53% | 1015.2 hPa | 0 mm | - | 523 W/m² | - |
| 1777571719 | 13.89° C | 56% | 1015.3 hPa | 0 mm | - | 281 W/m² | - |
| 1777571125 | 13.33° C | 58% | 1015.3 hPa | 0 mm | - | 532 W/m² | - |
| 1777570531 | 13.89° C | 58% | 1015.3 hPa | 0 mm | - | 430 W/m² | - |
| 1777569937 | 13.33° C | 57% | 1015.3 hPa | 0 mm | - | 404 W/m² | - |
| 1777569316 | 12.78° C | 61% | 1015.5 hPa | 0 mm | - | 474 W/m² | - |
| 1777568721 | 12.78° C | 64% | 1015.6 hPa | 0 mm | - | 395 W/m² | - |
| 1777568128 | 12.22° C | 62% | 1015.7 hPa | 0 mm | - | 192 W/m² | - |
| 1777567534 | 12.22° C | 66% | 1015.9 hPa | 0 mm | - | 470 W/m² | - |
| 1777566940 | 12.78° C | 66% | 1015.7 hPa | 0 mm | - | 484 W/m² | - |
| 1777566319 | 12.78° C | 66% | 1015.9 hPa | 0 mm | - | 451 W/m² | - |
| 1777565725 | 12.22° C | 67% | 1016 hPa | 0 mm | - | 466 W/m² | - |
* Rain latest hour (hover to see other rain measurements)
** Current wind speed in m/s (hover to see current wind gust speed)